User: anonymous   Login
Location: Unspecified
(0.0000°N, 0.0000°E)
Time: 00:06:24
(UTC+00:00)
Language:

STARLINK-37157 - Orbit

View from above orbital plane
View from above orbital plane
View from above satellite
View from above satellite

Ground track
Ground track

The orbit is defined by the following mean orbital elements,

1 68394U          26145.64842338 +.00000000 +00000-0 +59938-3 0 00006
2 68394  97.2860 288.2725 0000879 100.5210 259.6132 15.33456010    07
Epoch (UTC): 25 May 2026 15:33:43
Eccentricity: 0.0000879
inclination: 97.2860°
perigee height: 465 km
apogee height: 466 km
right ascension of ascending node: 288.2725°
argument of perigee: 100.5210°
revolutions per day: 15.33456010
mean anomaly at epoch: 259.6132°

The dashed part of the orbit path shows where the satellite is in the earth's shadow,  

DLR